Regional Weather Roundup
Issued by NWS

Home | Current Version | Previous Version | Text Only | Print | Product List | Glossary On
Versions: 1 2 3 4 5 6 7 8 9 10 11 12 13 14 15 16 17 18 19 20 21 22 23 24 25 26 27 28 29 30 31 32 33 34 35 36 37 38 39 40 41 42 43 44 45 46 47 48 49 50
810
ASUS43 KMKX 270421
RWRWI

WISCONSIN REGIONAL WEATHER ROUNDUP
NATIONAL WEATHER SERVICE MILWAUKEE/SULLIVAN WI
1100 PM CDT WED APR 26 2017

NOTE: "FAIR" INDICATES FEW OR NO CLOUDS BELOW 12,000 FEET WITH NO
SIGNIFICANT WEATHER AND/OR OBSTRUCTIONS TO VISIBILITY.

WIZ001-002-006>008-014>016-023>028-270500-
NORTHWEST WISCONSIN

CITY           SKY/WX    TMP DP  RH WIND       PRES   REMARKS
SUPERIOR ARPT  CLOUDY    29  25  84 CALM      29.62F
ASHLAND        MIX PCPN  29  27  92 N14       29.61F FOG     WCI  18
HAYWARD        CLOUDY    31  28  89 NE7       29.56F WCI  24
SIREN          CLOUDY    33  30  88 NE7       29.58S WCI  27
CUMBERLAND     FLURRIES  32  30  93 N8        29.54F WCI  25
RICE LAKE      CLOUDY    34  30  85 N13       29.55F WCI  25
CHETEK         CLOUDY    35  31  85 N6        29.54F WCI  30
LADYSMITH      CLOUDY    34  31  88 N10G16    29.54F WCI  26
EAU CLAIRE     CLOUDY    37  34  89 N8        29.52F WCI  31
MENOMONIE      CLOUDY    37  32  82 N10       29.53F WCI  30
NEW RICHMOND   CLOUDY    35  32  90 N7        29.57F WCI  29
OSCEOLA        CLOUDY    36  31  84 N9        29.60F WCI  29
$$

WIZ003>005-009-010-017-018-270500-
NORTH CENTRAL WISCONSIN

CITY           SKY/WX    TMP DP  RH WIND       PRES   REMARKS
MANITOWISH WTR LGT SNOW  30  30 100 N10       29.50F WCI  21
ARBOR VITAE    CLOUDY    34  32  93 N15       29.48F WCI  24
WOODRUFF       CLOUDY    34  32  93 N15       29.48F WCI  24
RHINELANDER    CLOUDY    35  35 100 N6        29.48S WCI  30
EAGLE RIVER    CLOUDY    32  32 100 N9        29.48S WCI  24
LAND O LAKES   CLOUDY    32  31  96 N12G17    29.49F WCI  23
PHILLIPS       CLOUDY    31  30  95 N9        29.50F WCI  23
TOMAHAWK       CLOUDY    33  32  94 NW8       29.49S WCI  27
MEDFORD        CLOUDY    35  35  97 NW9       29.48F FOG     WCI  28
MERRILL        CLOUDY    37  37  99 N9        29.48S WCI  30
$$

WIZ029-030-035-036-043>047-270500-
CENTRAL WISCONSIN

CITY           SKY/WX    TMP DP  RH WIND       PRES   REMARKS
WAUSAU         CLOUDY    40  38  93 N8        29.46R WCI  34
MOSINEE        CLOUDY    41  41 100 NW6       29.48S
MARSHFIELD     CLOUDY    39  36  89 NW9       29.47S WCI  33
STEVENS POINT  CLOUDY    40  38  93 W6        29.48F
WAUPACA        CLOUDY    47  43  84 W6        29.48R
WAUTOMA        CLOUDY    45  43  93 NW10      29.48R
WISC RAPIDS    CLOUDY    41  40  96 NW10      29.49R
CAMP DOUGLAS   CLOUDY    41  39  93 NW8       29.49F
$$

WIZ011>013-019>022-031-037>040-048>050-270500-
NORTHEAST WISCONSIN

CITY           SKY/WX    TMP DP  RH WIND       PRES   REMARKS
ANTIGO         CLOUDY    40  40 100 N9        29.45S WCI  33
SHAWANO        CLOUDY    50  47  87 NW6       29.46R
OCONTO         CLOUDY    55  51  86 W5        29.42F
STURGEON BAY   CLOUDY    56  52  86 W7        29.43F
GREEN BAY      CLOUDY    53  51  93 W9        29.44S
MANITOWOC      CLOUDY    59  54  83 W5        29.43F
APPLETON       CLOUDY    48  46  93 W10       29.44S
CLINTONVILLE   CLOUDY    46  45  93 W5        29.46R
OSHKOSH        CLOUDY    48  45  89 W8        29.45S
$$

WIZ032>034-041-042-053>061-270500-
SOUTHWEST WISCONSIN

CITY           SKY/WX    TMP DP  RH WIND       PRES   REMARKS
LA CROSSE      CLOUDY    43  39  86 NW13      29.52F
SPARTA         CLOUDY    40  38  92 NW6       29.51F
VIROQUA        CLOUDY    40  40 100 NW9       29.50R WCI  34
BOSCOBEL       CLOUDY    45  39  79 VRB7      29.51F
PRAIRIE DU CHI CLOUDY    43  38  82 NW12      29.52R
PLATTEVILLE    CLOUDY    45  44  97 NW10      29.50R
$$

WIZ056-057-062-063-064-067-068-270500-
SOUTH CENTRAL WISCONSIN

CITY           SKY/WX    TMP DP  RH WIND       PRES   REMARKS
REEDSBURG      CLOUDY    44  43  97 NW6       29.48F
BARABOO/DELLS  CLOUDY    44  42  95 NW6       29.47F FOG
LONE ROCK      CLOUDY    45  42  89 NW9       29.49F FOG
MINERAL POINT  CLOUDY    45  45 100 NW7       29.48S
MADISON        CLOUDY    50  47  89 W6        29.46F
MIDDLETON      CLOUDY    48  47  96 NW9       29.47F
WATERTOWN      CLOUDY    53  53 100 W3        29.45F
MONROE         CLOUDY    46  45  93 NW7       29.46F
JANESVILLE     CLOUDY    52  52 100 NW8       29.45F
$$

WIZ051-052-058>065-066-070>072-270500-
SOUTHEAST WISCONSIN

CITY           SKY/WX    TMP DP  RH WIND       PRES   REMARKS
MILWAUKEE      LGT RAIN  60  56  86 W5        29.45S
WAUKESHA       RAIN      52  52 100 W6        29.46S
MILWAUKEE/TIMM LGT RAIN  55  50  82 W6        29.45F
RACINE         CLOUDY    60  54  80 W8        29.47S
KENOSHA        LGT RAIN  59  55  87 SW5       29.45F
FOND DU LAC    CLOUDY    50  46  86 NW9       29.46R
SHEBOYGAN      CLOUDY    57  54  89 W9        29.44S
WEST BEND      RAIN      55  54  94 W6        29.45R
JUNEAU         CLOUDY    49  47  95 NW6       29.47S
$$

LSZ147-162-270500-
LAKE SUPERIOR

STATION/POSITION TIME  TEMP    WIND        PRES    WAVE
                       AIR SEA DIR/SP/G            HT/PER
                 (UTC) (F)     (DEG/KT/KT) (MB)    (FT/S)
DEVILS ISLAND    0400   28      10/ 15/ 18 1003.7F
SAXON HARBOR     0330   32      30/ 17/ 19 1002.7S
$$

LMZ867-665-643>646-270500-
LAKE MICHIGAN

STATION/POSITION TIME  TEMP    WIND        PRES    WAVE
                       AIR SEA DIR/SP/G            HT/PER
                 (UTC) (F)     (DEG/KT/KT) (MB)    (FT/S)
CHAMBERS ISLAND  0340   57     210/  3/  7  996.3S
N MID LAKE BUOY  0350   42 37  150/  6/  6  997.7F   2/ 5
NORTHPORT PIER   0340   47     230/  1/  4  996.6F
SISTER BAY       0321   54     160/  6/  8   N/A
KEWAUNEE LAKESHO 0354   60     300/  6/  9  996.2R
SHEBOYGAN LAKESH 0400   60     210/  3/  3  996.3F
PORT WASHINGTON  0340   60     250/  3/  7  998.0S
MILWAUKEE LAKESH 0400   59     230/  7/  9   N/A
S MID LAKE BUOY  0350   48 42  180/  6/  6  998.4R   1/ 4
KENOSHA   LAKESH 0400   61     220/  5/  7  997.6
$$

TC  - TEMPERATURE IN CELSIUS
VSB - VISIBILITY IN STATUTE MILES
WCI - WIND CHILL INDEX
HX  - HEAT INDEX





USA.gov is the U.S. government's official web portal to all federal, state and local government web resources and services.